EW6390 Weather Reports


time (UTC)temp
C
wind
direction
speed
KPH
gust
KPH
rain 1hr
cm
rain 24hr
cm
rain mn
cm
humidity
%
barometer
mb
20260509024649 15 243 0.0 0.0 0.00 0.00 0.00 80 1014.4
20260509024145 15 243 0.0 0.0 0.00 0.00 0.00 80 1014.5
20260509023646 15 243 0.0 0.0 0.00 0.00 0.00 81 1014.4
20260509023146 15 243 0.0 0.0 0.00 0.00 0.00 80 1014.4
20260509022647 15 243 0.0 0.0 0.00 0.00 0.00 80 1014.3
20260509022148 15 243 0.0 0.0 0.00 0.00 0.00 79 1014.3
20260509021647 15 243 0.0 0.0 0.00 0.00 0.00 79 1014.4
20260509021152 15 243 0.0 0.0 0.00 0.00 0.00 78 1014.6
20260509021146 15 243 0.0 0.0 0.00 0.00 0.00 80 1014.5
20260509020146 15 243 0.0 0.0 0.00 0.00 0.00 79 1014.5
20260509015646 15 243 0.0 0.0 0.00 0.00 0.00 79 1014.5
20260509015149 15 243 0.0 0.0 0.00 0.00 0.00 78 1014.5
20260509015145 15 243 0.0 0.0 0.00 0.00 0.00 79 1014.5
20260509014145 15 243 0.0 0.0 0.00 0.00 0.00 77 1014.5
20260509013644 16 243 0.0 0.0 0.00 0.00 0.00 77 1014.4
20260509013144 16 243 0.0 0.0 0.00 0.00 0.00 77 1014.3
20260509012645 16 243 0.0 0.0 0.00 0.00 0.00 75 1014.3
20260509012144 16 243 0.0 0.0 0.00 0.00 0.00 73 1014.2
20260509011645 16 243 0.0 0.0 0.00 0.00 0.00 73 1014.2
20260509011145 16 243 0.0 0.0 0.00 0.00 0.00 73 1014.1
20260509010651 17 243 0.0 0.0 0.00 0.00 0.00 72 1014.0
20260509010645 16 243 0.0 0.0 0.00 0.00 0.00 73 1014.1
20260509005642 17 243 0.0 0.0 0.00 0.00 0.00 69 1014.0
20260509005141 17 243 0.0 0.0 0.00 0.00 0.00 68 1014.0
20260509004640 17 243 0.0 0.0 0.00 0.00 0.00 70 1014.1
20260509004139 17 243 0.0 0.0 0.00 0.00 0.00 67 1014.1
20260509003640 17 243 0.0 0.0 0.00 0.00 0.00 67 1013.9
20260509003139 17 243 0.0 0.0 0.00 0.00 0.00 65 1014.1
20260509002641 17 243 0.0 0.0 0.00 0.00 0.00 65 1014.1
20260509002145 18 243 0.0 0.0 0.00 0.00 0.00 64 1014.0
20260509002141 18 243 0.0 0.0 0.00 0.00 0.00 65 1014.1
20260509001137 18 243 0.0 0.0 0.00 0.00 0.00 63 1013.9
20260509000638 18 243 0.0 0.0 0.00 0.00 0.00 63 1013.8
20260509000139 18 243 0.0 0.0 0.00 0.00 0.00 62 1013.8
20260508235639 18 243 0.0 0.0 0.00 0.00 0.00 62 1013.8
20260508235137 18 243 0.0 0.0 0.00 0.00 0.00 61 1013.7
20260508234645 18 243 0.0 0.0 0.00 0.00 0.00 60 1013.6
20260508234639 18 243 0.0 0.0 0.00 0.00 0.00 60 1013.6
20260508233643 19 226 0.0 0.0 0.00 0.00 0.00 58 1013.8
20260508233638 19 243 0.0 0.0 0.00 0.00 0.00 59 1013.7
20260508232639 19 226 0.0 0.0 0.00 0.00 0.00 58 1013.9
20260508232136 19 207 0.0 0.0 0.00 0.00 0.00 58 1013.8
20260508231636 19 239 0.0 3.2 0.00 0.00 0.00 56 1013.9
20260508231137 19 239 0.0 3.2 0.00 0.00 0.00 55 1013.7
20260508230637 19 237 0.0 3.2 0.00 0.00 0.00 56 1013.7
20260508230136 20 214 0.0 3.2 0.00 0.00 0.00 55 1013.7
20260508225636 20 263 0.0 3.2 0.00 0.00 0.00 55 1013.7
20260508225135 20 237 0.0 1.6 0.00 0.00 0.00 55 1013.7
20260508224636 20 223 0.0 1.6 0.00 0.00 0.00 55 1013.7
20260508224137 20 155 0.0 3.2 0.00 0.00 0.00 54 1013.6
20260508223641 20 220 0.0 6.4 0.00 0.00 0.00 54 1013.8
20260508223636 20 217 1.6 6.4 0.00 0.00 0.00 54 1013.8
20260508223259 20 230 0.0 1.6 0.00 0.00 0.00 54 1013.9
20260508222141 20 262 0.0 1.6 0.00 0.00 0.00 52 1013.7
20260508222136 20 230 0.0 1.6 0.00 0.00 0.00 53 1013.7
20260508221136 20 155 1.6 6.4 0.00 0.00 0.00 52 1013.6
20260508220636 20 144 1.6 6.4 0.00 0.00 0.00 52 1013.7
20260508220137 20 213 0.0 4.8 0.00 0.00 0.00 52 1013.7
20260508215637 20 248 0.0 4.8 0.00 0.00 0.00 52 1013.7
20260508215141 20 222 0.0 4.8 0.00 0.00 0.00 50 1013.6
20260508215135 20 208 0.0 4.8 0.00 0.00 0.00 53 1013.5
20260508214754 20 258 1.6 9.7 0.00 0.00 0.00 51 1013.7
20260508214136 20 239 0.0 4.8 0.00 0.00 0.00 51 1013.7
20260508213637 20 181 1.6 6.4 0.00 0.00 0.00 52 1013.7
20260508212635 20 236 1.6 9.7 0.00 0.00 0.00 49 1013.7
20260508212137 20 236 1.6 9.7 0.00 0.00 0.00 50 1013.7
20260508211637 21 230 3.2 11.3 0.00 0.00 0.00 49 1013.8
20260508211136 21 329 1.6 11.3 0.00 0.00 0.00 50 1013.8
20260508210141 21 248 1.6 9.7 0.00 0.00 0.00 50 1013.7
20260508210136 21 203 1.6 6.4 0.00 0.00 0.00 48 1013.6
20260508205137 21 244 1.6 9.7 0.00 0.00 0.00 49 1013.7
20260508204637 21 250 1.6 6.4 0.00 0.00 0.00 48 1013.8
20260508204141 21 233 1.6 6.4 0.00 0.00 0.00 48 1013.8
20260508204136 21 163 1.6 6.4 0.00 0.00 0.00 49 1013.8
20260508203135 21 219 1.6 4.8 0.00 0.00 0.00 48 1013.7
20260508202635 21 230 0.0 3.2 0.00 0.00 0.00 49 1013.8
20260508202137 21 265 1.6 9.7 0.00 0.00 0.00 49 1013.8
20260508201636 21 219 1.6 9.7 0.00 0.00 0.00 46 1013.9
20260508201136 21 236 0.0 8.0 0.00 0.00 0.00 47 1014.1
20260508200640 21 220 0.0 1.6 0.00 0.00 0.00 48 1014.2
20260508200636 21 42 0.0 4.8 0.00 0.00 0.00 47 1014.1
20260508195636 21 266 0.0 4.8 0.00 0.00 0.00 49 1014.3
20260508195136 21 141 0.0 4.8 0.00 0.00 0.00 48 1014.4
20260508194636 21 238 1.6 6.4 0.00 0.00 0.00 47 1014.5
20260508194135 21 225 1.6 6.4 0.00 0.00 0.00 46 1014.6
20260508193636 21 245 0.0 3.2 0.00 0.00 0.00 46 1014.6
20260508193137 21 222 0.0 3.2 0.00 0.00 0.00 46 1014.6
20260508192637 21 219 0.0 6.4 0.00 0.00 0.00 47 1014.9
20260508192135 21 245 0.0 6.4 0.00 0.00 0.00 45 1015.0
20260508191640 22 236 3.2 9.7 0.00 0.00 0.00 45 1015.0
20260508191635 21 74 1.6 9.7 0.00 0.00 0.00 45 1015.0
20260508190634 22 261 1.6 9.7 0.00 0.00 0.00 42 1015.0
20260508190133 22 227 1.6 6.4 0.00 0.00 0.00 45 1015.1
20260508185633 22 53 3.2 9.7 0.00 0.00 0.00 45 1015.2
20260508185134 22 271 3.2 11.3 0.00 0.00 0.00 42 1015.3
20260508184631 22 271 1.6 11.3 0.00 0.00 0.00 42 1015.3
20260508184132 23 161 1.6 6.4 0.00 0.00 0.00 40 1015.4
20260508183631 22 229 0.0 3.2 0.00 0.00 0.00 46 1015.6
20260508183131 22 352 1.6 4.8 0.00 0.00 0.00 44 1015.6
20260508182629 22 144 1.6 6.4 0.00 0.00 0.00 46 1015.7
20260508182130 21 160 1.6 6.4 0.00 0.00 0.00 47 1015.7
20260508181630 21 125 1.6 4.8 0.00 0.00 0.00 46 1015.7
20260508181131 22 236 1.6 8.0 0.00 0.00 0.00 45 1016.0
20260508180629 21 89 0.0 8.0 0.00 0.00 0.00 48 1015.9
20260508180129 21 155 1.6 8.0 0.00 0.00 0.00 44 1016.0
20260508175631 21 236 1.6 8.0 0.00 0.00 0.00 46 1016.1
20260508175129 21 236 1.6 6.4 0.00 0.00 0.00 45 1016.1
20260508174629 21 0 1.6 9.7 0.00 0.00 0.00 47 1016.1
20260508174129 21 122 3.2 9.7 0.00 0.00 0.00 48 1016.1
20260508173629 21 258 1.6 8.0 0.00 0.00 0.00 45 1016.1
20260508173134 21 191 0.0 3.2 0.00 0.00 0.00 46 1016.3
20260508173128 21 128 0.0 8.0 0.00 0.00 0.00 50 1016.3
20260508172129 21 15 0.0 3.2 0.00 0.00 0.00 45 1016.3
20260508171627 21 191 0.0 4.8 0.00 0.00 0.00 43 1016.4
20260508171132 22 252 1.6 6.4 0.00 0.00 0.00 45 1016.8
20260508171127 21 235 0.0 4.8 0.00 0.00 0.00 45 1016.6
20260508170128 21 86 1.6 8.0 0.00 0.00 0.00 46 1016.7
20260508165627 21 208 1.6 8.0 0.00 0.00 0.00 44 1016.8
20260508165127 21 119 0.0 4.8 0.00 0.00 0.00 50 1016.9
20260508164628 20 59 1.6 6.4 0.00 0.00 0.00 50 1016.9
20260508164128 21 93 0.0 6.4 0.00 0.00 0.00 46 1017.0
20260508163626 21 46 0.0 3.2 0.00 0.00 0.00 44 1017.1
20260508163248 21 183 1.6 4.8 0.00 0.00 0.00 42 1017.3
20260508163130 21 117 0.0 4.8 0.00 0.00 0.00 48 1017.3
20260508163126 21 106 0.0 3.2 0.00 0.00 0.00 45 1017.2
20260508161625 22 233 1.6 4.8 0.00 0.00 0.00 43 1017.3
20260508161125 21 119 1.6 8.0 0.00 0.00 0.00 48 1017.3
20260508160626 21 210 1.6 8.0 0.00 0.00 0.00 44 1017.3
20260508160131 21 163 0.0 4.8 0.00 0.00 0.00 47 1017.5
20260508160125 21 235 0.0 4.8 0.00 0.00 0.00 47 1017.4
20260508155126 21 81 0.0 4.8 0.00 0.00 0.00 44 1017.6
20260508154623 21 278 0.0 3.2 0.00 0.00 0.00 44 1017.7
20260508154130 21 319 0.0 6.4 0.00 0.00 0.00 49 1017.7
20260508154125 21 65 0.0 3.2 0.00 0.00 0.00 44 1017.7
20260508153742 20 44 1.6 6.4 0.00 0.00 0.00 47 1017.8
20260508153242 20 77 1.6 9.7 0.00 0.00 0.00 50 1017.8
20260508152123 20 53 1.6 9.7 0.00 0.00 0.00 46 1017.9
20260508151624 20 133 1.6 4.8 0.00 0.00 0.00 45 1017.9
20260508151124 20 79 1.6 6.4 0.00 0.00 0.00 48 1017.8
20260508150623 21 88 0.0 6.4 0.00 0.00 0.00 47 1017.8
20260508150124 20 43 0.0 8.0 0.00 0.00 0.00 49 1017.7
20260508145621 20 91 0.0 8.0 0.00 0.00 0.00 48 1017.7
20260508145122 20 128 1.6 8.0 0.00 0.00 0.00 50 1017.7
20260508144621 20 54 1.6 8.0 0.00 0.00 0.00 49 1017.7
20260508144121 20 269 0.0 4.8 0.00 0.00 0.00 52 1017.7
20260508143621 20 103 0.0 4.8 0.00 0.00 0.00 49 1017.6
20260508143121 20 113 0.0 4.8 0.00 0.00 0.00 49 1017.7
20260508142622 20 44 1.6 4.8 0.00 0.00 0.00 52 1017.7
20260508142122 20 211 1.6 4.8 0.00 0.00 0.00 49 1017.8
20260508141627 20 131 0.0 3.2 0.00 0.00 0.00 52 1018.0
20260508141620 20 77 0.0 4.8 0.00 0.00 0.00 54 1017.9
20260508141120 20 136 0.0 4.8 0.00 0.00 0.00 56 1017.9
20260508140120 20 136 0.0 3.2 0.00 0.00 0.00 52 1018.1
20260508135618 19 89 0.0 3.2 0.00 0.00 0.00 54 1018.1
20260508135117 19 105 0.0 6.4 0.00 0.03 0.00 55 1018.0
20260508134617 18 126 0.0 6.4 0.00 0.03 0.00 56 1018.1
20260508134114 18 116 0.0 4.8 0.00 0.05 0.00 57 1018.1
20260508133615 18 108 0.0 1.6 0.00 0.08 0.00 60 1018.1
20260508133116 18 121 0.0 3.2 0.00 0.10 0.00 58 1018.1
20260508132613 18 96 0.0 4.8 0.00 0.13 0.00 60 1018.0
20260508132113 18 121 0.0 4.8 0.00 0.15 0.00 57 1018.0
20260508131612 18 108 0.0 1.6 0.00 0.18 0.00 63 1017.9
20260508131112 17 141 0.0 1.6 0.00 0.20 0.00 63 1017.9
20260508130613 17 82 0.0 0.0 0.00 0.23 0.00 64 1017.7
20260508130113 16 82 0.0 0.0 0.00 0.23 0.00 67 1017.7
20260508125614 16 335 0.0 1.6 0.00 0.25 0.00 67 1017.6
20260508125113 16 335 0.0 1.6 0.00 0.25 0.00 69 1017.6
20260508124613 15 335 0.0 0.0 0.00 0.25 0.00 73 1017.6
20260508124117 15 311 0.0 0.0 0.00 0.25 0.00 75 1017.6
20260508124111 14 299 0.0 0.0 0.00 0.25 0.00 75 1017.5
20260508123112 14 299 0.0 0.0 0.00 0.25 0.00 75 1017.5
20260508122610 13 299 0.0 0.0 0.00 0.25 0.00 76 1017.5
20260508122110 13 299 0.0 0.0 0.00 0.25 0.00 77 1017.4
20260508121610 13 299 0.0 0.0 0.00 0.25 0.00 80 1017.3
20260508121111 13 299 0.0 0.0 0.00 0.25 0.00 81 1017.2
20260508120616 12 299 0.0 0.0 0.00 0.25 0.00 84 1017.1
20260508120609 12 299 0.0 0.0 0.00 0.25 0.00 82 1017.2
20260508120109 12 299 0.0 0.0 0.00 0.25 0.00 83 1017.1
20260508115110 12 299 0.0 0.0 0.00 0.28 0.00 86 1017.2
20260508114609 11 299 0.0 0.0 0.00 0.30 0.00 87 1017.0
20260508114117 11 299 0.0 0.0 0.00 0.38 0.00 88 1016.9
20260508114111 11 299 0.0 0.0 0.00 0.33 0.00 87 1016.9
20260508113110 11 299 0.0 0.0 0.00 0.43 0.00 88 1016.8
20260508112615 10 299 0.0 0.0 0.00 0.48 0.00 87 1016.5
20260508112609 10 299 0.0 0.0 0.00 0.46 0.00 88 1016.7
20260508111730 10 299 0.0 0.0 0.00 0.86 0.00 87 1016.2
20260508111615 10 299 0.0 0.0 0.00 0.76 0.00 88 1016.4
20260508111610 10 299 0.0 0.0 0.00 0.56 0.00 87 1016.4
20260508110111 10 299 0.0 0.0 0.00 0.86 0.00 88 1016.1
20260508105609 10 299 0.0 0.0 0.00 0.86 0.00 88 1016.0
20260508105110 10 299 0.0 0.0 0.00 0.86 0.00 88 1015.9
20260508104616 10 299 0.0 0.0 0.00 0.86 0.00 88 1015.8
20260508104611 10 299 0.0 0.0 0.00 0.86 0.00 88 1015.9
20260508104110 10 299 0.0 0.0 0.00 0.86 0.00 88 1015.9
20260508103110 10 299 0.0 0.0 0.00 0.89 0.00 88 1015.8
20260508102610 10 299 0.0 0.0 0.00 0.89 0.00 88 1015.6
20260508102111 10 299 0.0 0.0 0.00 0.97 0.00 88 1015.5
20260508101610 10 299 0.0 0.0 0.00 1.07 0.00 88 1015.5
20260508101116 10 299 0.0 0.0 0.00 1.32 0.00 87 1015.3
20260508101110 10 299 0.0 0.0 0.00 1.24 0.00 87 1015.4
20260508100115 10 299 0.0 0.0 0.00 1.37 0.00 87 1015.3
20260508100111 10 299 0.0 0.0 0.00 1.37 0.00 87 1015.2
20260508095729 10 299 0.0 0.0 0.00 1.37 0.00 86 1015.1
20260508094610 10 299 0.0 0.0 0.00 1.37 0.00 86 1014.9
20260508094111 10 299 0.0 0.0 0.00 1.37 0.00 86 1015.0
20260508093610 10 299 0.0 0.0 0.00 1.37 0.00 84 1015.0
20260508093111 10 299 0.0 0.0 0.00 1.37 0.00 84 1015.0
20260508092609 11 299 0.0 0.0 0.00 1.37 0.00 84 1015.1
20260508092107 11 299 0.0 0.0 0.00 1.37 0.00 84 1015.0
20260508091610 11 299 0.0 0.0 0.00 1.40 0.00 84 1014.9
20260508091604 11 299 0.0 0.0 0.00 1.40 0.00 85 1014.6
20260508091209 11 299 0.0 0.0 0.00 1.40 0.00 85 1014.8
20260508090104 11 299 0.0 0.0 0.00 1.40 0.00 85 1014.6
20260508085603 11 299 0.0 0.0 0.00 1.40 0.00 85 1014.6
20260508085102 11 299 0.0 0.0 0.00 1.40 0.00 85 1014.8
20260508084602 11 299 0.0 0.0 0.00 1.42 0.00 86 1014.6
20260508084103 11 299 0.0 0.0 0.00 1.47 0.00 86 1014.8
20260508083607 11 299 0.0 0.0 0.00 1.60 0.00 85 1014.5
20260508083603 11 299 0.0 0.0 0.00 1.52 0.00 85 1014.6
20260508083221 11 299 0.0 0.0 0.00 1.85 0.00 86 1014.5
20260508082601 11 299 0.0 0.0 0.00 1.68 0.00 85 1014.4
20260508082102 11 299 0.0 0.0 0.00 1.78 0.00 86 1014.4
20260508081101 11 299 0.0 0.0 0.00 1.98 0.00 85 1014.4
20260508080602 11 299 0.0 0.0 0.00 2.11 0.00 84 1014.5
20260508075600 11 299 0.0 0.0 0.00 2.29 0.00 87 1014.5
20260508075106 10 299 0.0 0.0 0.00 2.34 0.00 90 1014.6
20260508075101 10 299 0.0 0.0 0.00 2.31 0.00 89 1014.5
20260508074100 10 299 0.0 0.0 0.00 2.34 0.00 90 1014.4
20260508073600 10 299 0.0 0.0 0.00 2.36 0.00 89 1014.4
20260508073102 10 299 0.0 0.0 0.00 2.39 0.00 89 1014.4
20260508072558 10 299 0.0 0.0 0.00 2.39 0.00 89 1014.4
20260508072059 10 299 0.0 0.0 0.00 2.41 0.00 89 1014.4
20260508071605 10 299 0.0 0.0 0.00 2.57 0.00 88 1014.4
20260508071559 10 299 0.0 0.0 0.00 2.44 0.00 89 1014.5
20260508071100 10 299 0.0 0.0 0.00 2.49 0.00 89 1014.5
20260508070059 10 299 0.0 0.0 0.00 2.59 0.00 88 1014.3
20260508065559 10 299 0.0 0.0 0.00 2.67 0.00 88 1014.2
20260508065100 10 299 0.0 0.0 0.00 2.69 0.00 89 1014.1
20260508064557 10 299 0.0 0.0 0.00 2.72 0.00 88 1014.2
20260508064101 10 299 0.0 0.0 0.00 2.82 0.00 88 1014.1
20260508064056 10 299 0.0 0.0 0.00 2.77 0.00 88 1014.1
20260508063056 10 299 0.0 0.0 0.00 2.90 0.00 88 1014.0
20260508062556 10 299 0.0 0.0 0.00 2.97 0.00 88 1014.1
20260508062056 10 299 0.0 0.0 0.00 3.00 0.00 88 1014.0
20260508061557 10 299 0.0 0.0 0.00 3.02 0.00 88 1014.0
20260508061055 10 299 0.0 0.0 0.00 3.02 0.00 87 1014.1
20260508060555 11 299 0.0 0.0 0.00 3.12 0.00 87 1014.1
20260508060054 11 299 0.0 0.0 0.00 3.23 0.00 87 1014.2
20260508055600 11 299 0.0 0.0 0.00 3.45 0.00 87 1014.3
20260508055554 11 299 0.0 0.0 0.00 3.38 0.00 87 1014.2
20260508054600 11 299 0.0 0.0 0.00 3.53 0.00 87 1014.3
20260508054554 11 299 0.0 0.0 0.00 3.51 0.00 87 1014.3
20260508054215 11 299 0.0 0.0 0.00 3.61 0.00 87 1014.4
20260508053055 11 299 0.0 0.0 0.00 3.66 0.00 87 1014.3
20260508052556 11 299 0.0 0.0 0.00 3.68 0.00 87 1014.3
20260508052052 11 299 0.0 0.0 0.00 3.76 0.00 86 1014.2
20260508051553 11 299 0.0 0.0 0.00 3.89 0.00 86 1014.1
20260508051053 11 299 0.0 0.0 0.00 4.09 0.00 86 1014.3
20260508050552 12 299 0.0 0.0 0.00 4.24 0.00 85 1014.3
20260508050052 12 299 0.0 0.0 0.00 4.47 0.00 85 1014.2
20260508045557 12 299 0.0 0.0 0.00 4.85 0.00 84 1014.0
20260508045552 12 299 0.0 0.0 0.00 4.60 0.00 86 1014.2
20260508044552 12 299 0.0 0.0 0.00 4.98 0.00 85 1013.9
20260508044053 12 299 0.0 0.0 0.00 5.03 0.00 86 1013.9
20260508043551 12 299 0.0 0.0 0.00 5.03 0.00 86 1013.9
20260508043051 12 299 0.0 0.0 0.00 5.03 0.00 86 1013.9
20260508042551 12 299 0.0 0.0 0.00 5.03 0.00 86 1013.9
20260508042051 12 299 0.0 0.0 0.00 5.05 0.00 86 1013.8
20260508041550 12 299 0.0 0.0 0.00 5.05 0.00 85 1013.7
20260508041056 12 299 0.0 0.0 0.00 5.05 0.00 84 1013.6
20260508041050 12 299 0.0 0.0 0.00 5.05 0.00 84 1013.6
20260508040049 12 299 0.0 0.0 0.00 5.08 0.00 84 1013.7
20260508035551 12 299 0.0 0.0 0.00 5.08 5.08 84 1013.7
20260508035048 13 299 0.0 0.0 0.00 5.08 5.08 84 1013.9
20260508034549 13 299 0.0 0.0 0.00 5.08 5.08 84 1013.9
20260508034046 13 299 0.0 0.0 0.00 5.08 5.08 83 1013.7
20260508033547 13 299 0.0 0.0 0.00 5.08 5.08 82 1013.8
20260508033047 13 299 0.0 0.0 0.00 5.08 5.08 81 1013.7
20260508032547 13 299 0.0 0.0 0.00 5.08 5.08 79 1013.8
20260508032047 13 299 0.0 0.0 0.00 5.08 5.08 80 1013.7
20260508031547 13 299 0.0 0.0 0.00 5.08 5.08 81 1013.7
20260508031047 13 299 0.0 0.0 0.00 5.08 5.08 82 1013.7
20260508030546 13 299 0.0 0.0 0.00 5.08 5.08 81 1013.6
20260508030045 13 299 0.0 0.0 0.00 5.08 5.08 78 1013.5
20260508025544 14 299 0.0 0.0 0.00 5.08 5.08 79 1013.5
20260508025043 14 299 0.0 0.0 0.00 5.08 5.08 77 1013.6